TimeEDT,TemperatureF,Dew PointF,Humidity,Sea Level PressureIn,VisibilityMPH,Wind Direction,Wind SpeedMPH,Gust SpeedMPH,PrecipitationIn,Events,Conditions,WindDirDegrees,DateUTC
12:11 AM,59.4,59.0,99,29.78,10.0,NNW,5.8,-,N/A,,Scattered Clouds,330,2013-06-30 04:11:00
12:32 AM,59.9,59.4,98,29.78,10.0,NNW,3.5,-,N/A,,Mostly Cloudy,330,2013-06-30 04:32:00
12:51 AM,59.2,58.8,99,29.78,10.0,Calm,Calm,-,0.01,,Clear,0,2013-06-30 04:51:00
1:11 AM,59.5,59.0,98,29.79,10.0,Calm,Calm,-,N/A,,Clear,0,2013-06-30 05:11:00
1:32 AM,58.8,58.3,98,29.79,5.0,Calm,Calm,-,N/A,,Clear,0,2013-06-30 05:32:00
1:51 AM,58.3,58.1,99,29.79,7.0,Calm,Calm,-,N/A,,Clear,0,2013-06-30 05:51:00
2:11 AM,58.3,58.1,99,29.79,7.0,Calm,Calm,-,N/A,,Scattered Clouds,0,2013-06-30 06:11:00
2:32 AM,58.6,58.3,99,29.79,10.0,Calm,Calm,-,N/A,,Overcast,0,2013-06-30 06:32:00
2:51 AM,58.5,58.1,99,29.79,7.0,Calm,Calm,-,N/A,,Overcast,0,2013-06-30 06:51:00
3:11 AM,59.2,59.0,99,29.79,7.0,Calm,Calm,-,0.01,,Overcast,0,2013-06-30 07:11:00
3:32 AM,58.8,58.3,98,29.79,7.0,Calm,Calm,-,0.01,,Mostly Cloudy,0,2013-06-30 07:32:00
3:51 AM,58.3,58.1,99,29.79,7.0,Calm,Calm,-,0.01,,Mostly Cloudy,0,2013-06-30 07:51:00
4:11 AM,58.3,58.1,99,29.79,10.0,Calm,Calm,-,N/A,,Scattered Clouds,0,2013-06-30 08:11:00
4:31 AM,57.9,57.4,98,29.79,10.0,Calm,Calm,-,N/A,,Scattered Clouds,0,2013-06-30 08:31:00
4:51 AM,58.1,57.9,99,29.80,10.0,Calm,Calm,-,N/A,,Overcast,0,2013-06-30 08:51:00
5:11 AM,59.0,58.5,98,29.81,10.0,Calm,Calm,-,N/A,,Overcast,0,2013-06-30 09:11:00
5:31 AM,58.8,58.3,98,29.81,10.0,Calm,Calm,-,N/A,,Overcast,0,2013-06-30 09:31:00
5:51 AM,58.6,58.3,99,29.82,10.0,Calm,Calm,-,N/A,,Overcast,0,2013-06-30 09:51:00
6:12 AM,59.0,58.5,98,29.82,10.0,Calm,Calm,-,N/A,,Mostly Cloudy,0,2013-06-30 10:12:00
6:31 AM,58.1,57.6,98,29.83,7.0,NNW,3.5,-,N/A,,Mostly Cloudy,340,2013-06-30 10:31:00
6:51 AM,58.5,58.1,99,29.83,10.0,NNW,3.5,-,0.01,,Mostly Cloudy,340,2013-06-30 10:51:00
7:12 AM,60.4,59.9,98,29.84,10.0,Calm,Calm,-,N/A,,Scattered Clouds,0,2013-06-30 11:12:00
7:31 AM,61.9,59.9,93,29.84,10.0,Calm,Calm,-,N/A,,Scattered Clouds,0,2013-06-30 11:31:00
7:51 AM,63.1,60.8,92,29.84,10.0,Calm,Calm,-,N/A,,Clear,0,2013-06-30 11:51:00
8:12 AM,64.8,58.8,81,29.85,10.0,NNE,3.5,-,N/A,,Clear,20,2013-06-30 12:12:00
8:31 AM,64.4,58.3,80,29.85,10.0,North,3.5,-,N/A,,Scattered Clouds,10,2013-06-30 12:31:00
8:51 AM,63.9,57.7,80,29.86,10.0,Calm,Calm,-,N/A,,Mostly Cloudy,0,2013-06-30 12:51:00
9:12 AM,64.4,57.7,79,29.87,10.0,Calm,Calm,-,0.01,,Overcast,0,2013-06-30 13:12:00
9:31 AM,64.8,58.3,79,29.87,10.0,Calm,Calm,-,0.01,,Overcast,0,2013-06-30 13:31:00
9:51 AM,66.0,58.6,77,29.88,10.0,NNE,3.5,-,0.01,,Overcast,30,2013-06-30 13:51:00
10:12 AM,66.6,57.9,74,29.89,10.0,Calm,Calm,-,N/A,,Overcast,0,2013-06-30 14:12:00
10:31 AM,69.1,58.5,69,29.89,10.0,NE,4.6,-,N/A,,Mostly Cloudy,40,2013-06-30 14:31:00
10:51 AM,70.5,58.5,66,29.89,10.0,North,3.5,-,N/A,,Scattered Clouds,10,2013-06-30 14:51:00
11:12 AM,70.5,57.4,63,29.90,10.0,NE,6.9,-,N/A,,Mostly Cloudy,40,2013-06-30 15:12:00
11:32 AM,68.9,56.8,65,29.90,10.0,NE,5.8,-,N/A,,Mostly Cloudy,50,2013-06-30 15:32:00
11:51 AM,70.0,58.3,66,29.91,10.0,North,4.6,-,N/A,,Mostly Cloudy,10,2013-06-30 15:51:00
12:11 PM,73.0,59.7,63,29.91,10.0,NE,4.6,-,N/A,,Scattered Clouds,50,2013-06-30 16:11:00
12:32 PM,73.0,59.0,61,29.92,10.0,ENE,9.2,-,0.01,,Clear,60,2013-06-30 16:32:00
12:51 PM,73.6,59.7,62,29.91,10.0,NE,8.1,-,0.01,,Clear,50,2013-06-30 16:51:00
1:11 PM,75.4,61.2,61,29.92,10.0,ENE,8.1,-,N/A,,Clear,70,2013-06-30 17:11:00
1:32 PM,76.3,61.0,59,29.91,10.0,NE,8.1,-,N/A,,Clear,50,2013-06-30 17:32:00
1:51 PM,76.5,61.0,59,29.91,10.0,NE,8.1,-,N/A,,Clear,50,2013-06-30 17:51:00
2:11 PM,77.0,58.8,53,29.92,10.0,East,4.6,-,N/A,,Clear,80,2013-06-30 18:11:00
2:32 PM,77.2,60.6,56,29.92,10.0,ENE,8.1,-,0.01,,Clear,70,2013-06-30 18:32:00
2:51 PM,77.2,60.8,57,29.92,10.0,East,9.2,-,0.01,,Scattered Clouds,80,2013-06-30 18:51:00
3:11 PM,77.2,60.8,57,29.91,10.0,ENE,6.9,-,N/A,,Clear,70,2013-06-30 19:11:00
3:32 PM,77.2,61.3,58,29.91,10.0,East,6.9,-,N/A,,Clear,80,2013-06-30 19:32:00
3:51 PM,76.3,60.3,57,29.91,10.0,East,9.2,-,N/A,,Clear,90,2013-06-30 19:51:00
4:11 PM,77.2,61.2,58,29.91,10.0,East,6.9,-,N/A,,Clear,80,2013-06-30 20:11:00
4:32 PM,77.2,60.8,57,29.92,10.0,East,10.4,-,N/A,,Clear,80,2013-06-30 20:32:00
4:51 PM,75.9,59.5,57,29.92,10.0,East,10.4,-,N/A,,Clear,80,2013-06-30 20:51:00
5:12 PM,75.4,59.4,57,29.92,10.0,ENE,12.7,16.1,N/A,,Clear,70,2013-06-30 21:12:00
5:32 PM,74.5,57.4,55,29.93,10.0,East,12.7,18.4,0.01,,Clear,80,2013-06-30 21:32:00
5:51 PM,73.6,55.6,53,29.93,10.0,East,10.4,16.1,0.01,,Clear,80,2013-06-30 21:51:00
6:12 PM,73.6,54.1,50,29.94,10.0,East,12.7,-,N/A,,Clear,80,2013-06-30 22:12:00
6:32 PM,72.7,52.5,49,29.94,10.0,ENE,15.0,-,N/A,,Clear,70,2013-06-30 22:32:00
6:51 PM,72.1,51.4,48,29.95,10.0,East,11.5,-,N/A,,Clear,80,2013-06-30 22:51:00
7:12 PM,71.1,48.2,44,29.95,10.0,ENE,12.7,-,N/A,,Clear,60,2013-06-30 23:12:00
7:32 PM,70.2,46.2,42,29.96,10.0,ENE,11.5,18.4,N/A,,Clear,70,2013-06-30 23:32:00
7:51 PM,69.1,45.5,43,29.97,10.0,ENE,10.4,-,N/A,,Clear,70,2013-06-30 23:51:00
8:12 PM,68.2,46.4,46,29.97,10.0,ENE,4.6,-,N/A,,Clear,60,2013-07-01 00:12:00
8:31 PM,66.6,47.1,50,29.97,10.0,ENE,5.8,-,N/A,,Clear,60,2013-07-01 00:31:00
8:52 PM,64.8,48.7,56,29.97,10.0,ENE,3.5,-,0.01,,Clear,70,2013-07-01 00:52:00
9:11 PM,63.5,48.7,59,29.98,10.0,ENE,3.5,-,N/A,,Clear,70,2013-07-01 01:11:00
9:32 PM,63.0,49.6,62,29.99,7.0,Calm,Calm,-,N/A,,Clear,0,2013-07-01 01:32:00
9:52 PM,60.8,50.0,68,29.99,10.0,Calm,Calm,-,N/A,,Clear,0,2013-07-01 01:52:00
10:11 PM,59.7,50.2,71,29.99,10.0,Calm,Calm,-,N/A,,Clear,0,2013-07-01 02:11:00
10:32 PM,59.0,49.5,71,30.00,10.0,Calm,Calm,-,N/A,,Clear,0,2013-07-01 02:32:00
10:51 PM,58.1,49.1,72,30.00,10.0,NNE,3.5,-,N/A,,Clear,20,2013-07-01 02:51:00
11:12 PM,56.8,49.3,76,30.01,10.0,Calm,Calm,-,N/A,,Clear,0,2013-07-01 03:12:00
11:32 PM,53.6,49.6,86,30.00,10.0,NNW,3.5,-,N/A,,Clear,340,2013-07-01 03:32:00
11:51 PM,53.8,50.5,89,30.00,10.0,North,3.5,-,N/A,,Clear,360,2013-07-01 03:51:00